TimeCST,TemperatureF,Dew PointF,Humidity,Sea Level PressureIn,VisibilityMPH,Wind Direction,Wind SpeedMPH,Gust SpeedMPH,PrecipitationIn,Events,Conditions,WindDirDegrees,DateUTC
12:51 AM,69.8,66.2,88,30.06,7.0,North,10.4,-,N/A,,Clear,350,2012-11-09 06:51:00
1:48 AM,69.8,60.8,73,30.05,7.0,NNW,9.2,-,N/A,,Clear,340,2012-11-09 07:48:00
2:42 AM,69.8,60.8,73,30.08,7.0,North,4.6,-,N/A,,Clear,350,2012-11-09 08:42:00
3:50 AM,69.8,64.4,83,30.08,7.0,North,8.1,-,N/A,,Clear,350,2012-11-09 09:50:00
4:51 AM,69.8,64.4,83,30.06,7.0,North,8.1,-,N/A,,Clear,350,2012-11-09 10:51:00
5:44 AM,68.0,60.8,78,30.03,7.0,North,8.1,-,N/A,,Clear,350,2012-11-09 11:44:00
6:45 AM,69.8,62.6,78,30.08,7.0,NNW,9.2,-,N/A,,Partly Cloudy,340,2012-11-09 12:45:00
7:47 AM,71.6,64.4,78,30.10,8.0,NNW,10.4,-,N/A,,Scattered Clouds,340,2012-11-09 13:47:00
8:51 AM,75.2,62.6,65,30.15,10.0,North,8.1,-,N/A,,Scattered Clouds,350,2012-11-09 14:51:00
9:45 AM,75.2,62.6,65,30.12,10.0,North,9.2,-,N/A,,Scattered Clouds,360,2012-11-09 15:45:00
10:40 AM,75.2,62.6,65,30.11,10.0,NNE,9.2,-,N/A,,Mostly Cloudy,20,2012-11-09 16:40:00
11:44 AM,75.2,64.4,69,30.06,8.0,NNE,5.8,-,N/A,,Mostly Cloudy,30,2012-11-09 17:44:00
12:47 PM,71.6,66.2,83,30.05,8.0,NNE,4.6,-,N/A,,Mostly Cloudy,20,2012-11-09 18:47:00
1:42 PM,75.2,64.4,69,30.03,8.0,ENE,11.5,-,N/A,,Scattered Clouds,60,2012-11-09 19:42:00
2:49 PM,75.2,62.6,65,30.04,8.0,ENE,13.8,-,N/A,,Mostly Cloudy,60,2012-11-09 20:49:00
3:46 PM,75.2,62.6,65,30.02,8.0,ENE,8.1,-,N/A,,Scattered Clouds,70,2012-11-09 21:46:00
4:44 PM,71.6,62.6,73,30.03,8.0,ENE,6.9,-,N/A,,Scattered Clouds,70,2012-11-09 22:44:00
5:53 PM,69.8,60.8,73,30.01,8.0,ENE,8.1,-,N/A,,Scattered Clouds,60,2012-11-09 23:53:00
6:42 PM,71.6,60.8,69,30.06,8.0,ENE,6.9,-,N/A,,Scattered Clouds,70,2012-11-10 00:42:00
7:45 PM,69.8,60.8,73,30.07,7.0,ENE,8.1,-,N/A,,Scattered Clouds,70,2012-11-10 01:45:00
8:44 PM,71.6,59.0,64,30.10,7.0,ENE,9.2,-,N/A,,Scattered Clouds,60,2012-11-10 02:44:00
9:48 PM,69.8,59.0,68,30.09,7.0,NE,9.2,-,N/A,,Scattered Clouds,50,2012-11-10 03:48:00
10:40 PM,68.0,57.2,68,30.09,7.0,ENE,6.9,-,N/A,,Clear,60,2012-11-10 04:40:00